Flag for Philippines Weather past 2 weeks in Makati, Philippines

Now
77 °F

Light rain. Mostly cloudy.


Feels Like: 78 °F
Forecast: 79 / 82 °F
Wind: 1 mph from North

Location: National Airport

Current Time: Sep 19, 2014 at 4:51:02 AM

Latest Report: Sep 19, 2014 at 4:00 AM


Visibility: 4 mi

Pressure: 29.53 "Hg

Humidity: 100%

Dew point: 77 °F

Location of MakatiLocation

Historic Weather in Makati — Graph

°F

Makati temperature yesterday

Maximum temperature yesterday: 86 °F (at 2:00 PM)
Minimum temperature yesterday: 79 °F (at 8:00 PM)
Average temperature yesterday: 83 °F

Past Weeks' High & Low Weather Summary

 TemperatureHumidityPressure
High91 °F (Sep 5, 1:00 PM)100% (Sep 4, 3:00 AM)29.92 "Hg (Sep 4, 3:00 AM)
Low75 °F (Sep 11, 5:00 AM)55% (Sep 16, 2:00 PM)29.24 "Hg (Sep 14, 5:00 PM)
Average82 °F87%29.75 "Hg
* Reported Sep 4 3:00 AM — Sep 19 3:00 AM, Makati, Weather by CustomWeather, © 2014

Note: Actual official high and low records may vary slightly from our data, if they occured in-between our weather recording intervals... More about our weather records

Advertising

Makati weather history for previous 24 hours

 ConditionsComfort  
Time TempWeatherWind HumidityBarometerVisibility
3:00 AM
Sep 19
77 °FThunderstorms. Mostly cloudy.9 mph100%29.56 "Hg1 mi
2:00 AM81 °FLight rain. Mostly cloudy.2 mph100%29.53 "Hg3 mi
1:00 AM81 °FLight rain. Mostly cloudy.3 mph100%29.56 "Hg5 mi
12:00 AM81 °FMostly cloudy.5 mph100%29.59 "Hg5 mi
11:00 PM
Sep 18
81 °FMostly cloudy.3 mph100%29.62 "Hg6 mi
10:00 PM81 °FLight rain. Mostly cloudy.2 mph100%29.65 "Hg6 mi
9:00 PM81 °FLight rain. Mostly cloudy.5 mph100%29.65 "Hg6 mi
8:00 PM79 °FRain. Mostly cloudy.9 mph100%29.65 "Hg6 mi
7:00 PM81 °FThunderstorms. Mostly cloudy.9 mph94%29.68 "Hg6 mi
6:00 PM84 °FMostly cloudy.6 mph89%29.62 "HgN/A
5:00 PM86 °FMore clouds than sun.8 mph79%29.62 "HgN/A
4:00 PM86 °FCloudy.12 mph79%29.62 "HgN/A
3:00 PM84 °FMore clouds than sun.12 mph84%29.62 "HgN/A
2:00 PM86 °FMore clouds than sun.14 mph75%29.65 "HgN/A
1:00 PM84 °FMore clouds than sun.14 mph84%29.68 "HgN/A
12:00 PM84 °FMore clouds than sun.8 mph89%29.74 "HgN/A
11:00 AM84 °FMore clouds than sun.10 mph89%29.77 "HgN/A
10:00 AM84 °FMore clouds than sun.8 mph89%29.77 "HgN/A
9:00 AM82 °FMore clouds than sun.9 mph94%29.80 "HgN/A
8:00 AM82 °FMore clouds than sun.8 mph94%29.80 "HgN/A
7:00 AM82 °FScattered clouds.7 mph94%29.77 "HgN/A
6:00 AM81 °FScattered clouds.6 mph94%29.77 "HgN/A
5:00 AM82 °FPassing clouds.6 mph89%29.77 "HgN/A
4:00 AM82 °FPassing clouds.10 mph89%29.77 "HgN/A
Weather by CustomWeather, © 2014

See weather overviewHow to use our weather pages